Simultaneous Nadir Overpasses (SNOs) Predictions

Prediction of SNOs over PacNW region [( 10.00, 139.50) to ( 22.70, 165.60)] between AQUA and NPP Satellites:

Table of predicted SNOs over PacNW region for the next 30.0 days since TLE Epoch: 12/23/2016
Index Date (AQUA) Time (AQUA) AQUA Lat,Lon Date (NPP) Time (NPP) NPP Lat,Lon Distance(km) Time Diff (sec)
1 12/23/2016 15:59:01 22.62, 147.49 12/23/2016 16:02:21 23.27, 144.46 318.55 200
2 12/31/2016 15:09:36 22.60, 159.85 12/31/2016 15:11:34 23.23, 157.14 286.20 118
3 01/03/2017 03:31:26 22.65, 147.53 01/03/2017 03:27:57 23.14, 145.55 209.68 209
4 01/08/2017 15:59:02 22.63, 147.50 01/08/2017 16:02:14 23.33, 144.48 319.15 192
5 01/16/2017 15:09:34 22.63, 159.88 01/16/2017 15:11:27 23.24, 157.15 287.52 113
6 01/19/2017 03:31:24 22.69, 147.54 01/19/2017 03:27:54 23.39, 145.49 223.64 210




NCC Satellite Simultaneous Nadir Overpasses (SNOs) Prediction Service
